Simultaneous Nadir Overpasses (SNOs) Predictions

Prediction of SNOs between LANDSAT-8 and NPP Satellite Orbit:

Table of predicted SNOs for the next 14.0 days since TLE Epoch: 10/23/2015
Index Date (LANDSAT-8) Time (LANDSAT-8) Lat,Lon (LANDSAT-8) SZA (LANDSAT-8 ) Date (NPP) Time (NPP) Lat,Lon (NPP) SZA (NPP ) Distance(km) Time Diff (sec)
1 10/24/2015 04:29:48 -71.28, -69.27 97.19 10/24/2015 04:28:41 -71.33, -71.96 97.15 95.95 67
2 10/24/2015 05:19:30 70.37, 96.97 81.90 10/24/2015 05:19:09 70.38, 96.93 81.91 1.83 21
3 10/24/2015 06:09:00 -70.26, -95.56 98.21 10/24/2015 06:09:50 -70.24, -95.54 98.22 1.91 50
4 10/26/2015 20:46:33 -70.47, 45.35 97.09 10/26/2015 20:45:19 -70.53, 45.14 97.03 10.33 74
5 10/26/2015 21:36:01 70.31,-147.23 82.77 10/26/2015 21:36:01 70.31,-147.21 82.77 1.04 0
6 10/26/2015 22:25:31 -70.20, 20.24 97.34 10/26/2015 22:26:43 -70.22, 20.25 97.31 2.44 72
7 10/29/2015 13:03:04 -70.40, 161.13 96.26 10/29/2015 13:02:10 -70.42, 161.09 96.24 2.20 54
8 10/29/2015 13:52:31 70.29, -31.38 83.65 10/29/2015 13:52:54 70.31, -31.43 83.66 2.32 23
9 10/29/2015 14:42:15 -69.42, 135.03 97.23 10/29/2015 14:43:21 -69.42, 137.21 97.21 85.09 66
10 11/01/2015 05:19:33 -70.37, -83.04 95.42 11/01/2015 05:19:01 -70.36, -83.05 95.43 1.19 32
11 11/01/2015 06:09:00 70.26, 84.45 84.49 11/01/2015 06:09:45 70.26, 84.42 84.49 1.29 45
12 11/03/2015 20:46:29 70.65,-134.38 85.70 11/03/2015 20:45:17 70.73,-135.19 85.79 31.28 72
13 11/03/2015 21:36:03 -70.32, 32.78 94.62 11/03/2015 21:35:53 -70.31, 32.80 94.63 1.57 10
14 11/03/2015 22:25:30 70.21,-159.74 85.29 11/03/2015 22:26:37 70.21,-159.74 85.29 0.11 67
15 11/06/2015 13:03:03 70.36, -18.92 86.23 11/06/2015 13:02:03 70.38, -18.85 86.25 2.87 60
16 11/06/2015 13:52:33 -70.26, 148.57 93.86 11/06/2015 13:52:45 -70.27, 148.63 93.85 2.59 12
17 11/06/2015 14:42:10 69.60, -44.72 85.48 11/06/2015 14:43:18 69.59, -43.04 85.49 65.04 68




NCC Satellite Simultaneous Nadir Overpasses (SNOs) Prediction Service
